Tracking 17887 objects as of 11-December-2016
HD Live streaming from Space Station
objects crossing your sky now

CZ-4 DEB

Track CZ-4 DEB now!
10-day predictions


NORAD ID: 26650
Int'l Code: 1999-057LG
Perigee: 631.2 km
Apogee: 648.8 km
Inclination: 98.5 °
Period: 97.4 minutes
Semi major axis: 7011 km
RCS: 0.0056 m2 (small)
Launch date: October 14, 1999
Source: People's Republic of China (PRC)
Launch site: Taiyaun Space Center, China (TSC)

Note: This is SATELLITE DEBRIS
Your satellite tracking list
Your tracking list is empty





NASA's NSSDC Master Catalog

Two Line Element Set (TLE):
1 26650U 99057LG  16346.16205301  .00000837  00000-0  12155-3 0  9992
2 26650  98.5456  53.7634 0012516  74.6554 313.8660 14.78873033883046
Source of the keplerian elements: AFSPC